Regional Weather Roundup
Issued by NWS Cleveland, OH

Home | Current Version | Previous Version | Graphics & Text | Print | Product List | Glossary On
Versions: 1 2 3 4 5 6 7 8 9 10 11 12 13 14 15 16 17 18 19 20 21 22 23 24 25 26 27 28 29 30 31 32 33 34 35 36 37 38 39 40 41 42 43 44 45 46 47 48 49 50
000
ASUS41 KCLE 210400
RWRCLE
OHIO REGIONAL WEATHER ROUNDUP
NATIONAL WEATHER SERVICE WILMINGTON, OH
1200 AM EDT THU AUG 21 2014

NOTE: "FAIR" INDICATES FEW OR NO CLOUDS BELOW 12,000 FEET WITH NO
SIGNIFICANT WEATHER AND/OR OBSTRUCTIONS TO VISIBILITY.

OHZ001>008-015>018-024>027-034-035-043-044-210500-
   NORTHWEST OHIO

CITY           SKY/WX    TMP DP  RH WIND       PRES   REMARKS
DEFIANCE       MOCLDY    70  66  87 CALM      29.98R
FINDLAY        CLEAR     70  66  87 S3        29.98R
TOLEDO EXPRESS CLEAR     68  66  93 CALM      29.97R
TOLEDO METCALF PTCLDY    71  64  78 CALM      29.98R
LIMA           MOCLDY    75  66  73 SW9       30.01R
$$

OHZ009>014-019>023-028>033-038-089-210500-
   NORTHEAST OHIO

CITY           SKY/WX    TMP DP  RH WIND       PRES   REMARKS
CLE-HOPKINS    CLEAR     71  66  84 SW6       29.99R
CLE-LAKEFRONT  CLEAR     74  69  85 S7        29.96R
CUY CO. ARPT   NOT AVBL
LORAIN-ELYRIA  CLEAR     70  66  87 SW5       29.99R
ASHTABULA      PTCLDY    66  65  96 S3        29.98R
AKRON-CANTON   PTCLDY    70  66  87 SW5       30.01R
WOOSTER        NOT AVBL
MANSFIELD      CLEAR     68  65  90 S3        30.02R
YOUNGSTOWN     MOCLDY    69  66  90 S5        29.99S
$$

OHZ042-051>053-060>062-070>072-077>081-210500-
  SOUTHWEST OHIO

CITY           SKY/WX    TMP DP  RH WIND       PRES   REMARKS
CINC-COVINGTON LGT RAIN  71  68  90 S10       30.04F
CINC-LUNKEN    LGT RAIN  72  68  87 S5        30.04S
HAMILTON       CLOUDY    73  68  84 VRB3      30.05R
DAYTON         NOT AVBL
WRIGHT-PAT AFB PTCLDY    73  67  82 SW9       30.03R
DAYTON GENERAL PTCLDY    73  68  84 SW7       30.04R
WILMINGTON     PTCLDY    68  65  90 SW7       30.04R
$$

OHZ036-037-039>041-045>050-054>059-063>069-073>076-082>088-210500-
  CENTRAL AND SOUTHEAST OHIO

CITY           SKY/WX    TMP DP  RH WIND       PRES   REMARKS
COLUMBUS       PTCLDY    78  66  66 SW8       30.00S
OSU AIRPORT    CLEAR     74  66  76 W8        30.01S
BOLTON FIELD   NOT AVBL
RICKENBACK AFB NOT AVBL
NEWARK         PTCLDY    68  66  93 CALM      30.01S
MARION         CLEAR     70  65  84 SW5       30.01R
LANCASTER      CLEAR     71  65  81 CALM      30.02R
ZANESVILLE     CLEAR     68  65  90 CALM      30.02R
NEW PHILLY     FOG       67  67 100 CALM      30.01S VSB 1/2
$$



USA.gov is the U.S. government's official web portal to all federal, state and local government web resources and services.